WA8SIE Weather Reports


time (UTC)temp
C
wind
direction
speed
KPH
gust
KPH
rain 1hr
cm
rain 24hr
cm
rain mn
cm
humidity
%
barometer
mb
20260904171010 34 335 0.0 0.0 0.00 0.00 0.00 54 1010.3
20260904170511 34 10 3.2 0.0 0.00 0.00 0.00 54 1010.3
20260904170010 34 186 0.0 0.0 0.00 0.00 0.00 55 1010.3
20260904165512 34 8 8.0 1.6 0.00 0.00 0.00 55 1010.5
20260904165010 34 314 0.0 0.0 0.00 0.00 0.00 56 1010.5
20260904164511 33 300 0.0 0.0 0.00 0.00 0.00 56 1010.5
20260904164010 33 185 0.0 0.0 0.00 0.00 0.00 58 1010.6
20260904163510 33 188 8.0 0.0 0.00 0.00 0.00 58 1010.6
20260904163010 33 309 0.0 9.7 0.00 0.00 0.00 58 1010.6
20260904162011 33 258 0.0 0.0 0.00 0.00 0.00 61 1010.9
20260904161511 33 268 0.0 0.0 0.00 0.00 0.00 61 1010.9
20260904161011 32 326 3.2 0.0 0.00 0.00 0.00 60 1011.0
20260904160511 32 326 0.0 6.4 0.00 0.00 0.00 60 1011.0
20260904160010 32 281 0.0 0.0 0.00 0.00 0.00 62 1011.0
20260904155510 32 43 4.8 0.0 0.00 0.00 0.00 64 1011.1
20260904154510 32 321 0.0 0.0 0.00 0.00 0.00 65 1011.1
20260904154012 32 219 0.0 3.2 0.00 0.00 0.00 66 1011.2
20260904153011 32 219 0.0 0.0 0.00 0.00 0.00 66 1011.2
20260904152510 31 219 0.0 0.0 0.00 0.00 0.00 67 1011.1
20260904152010 31 219 0.0 0.0 0.00 0.00 0.00 67 1011.1
20260904151512 31 219 0.0 4.8 0.00 0.00 0.00 68 1011.1
20260904151012 31 219 0.0 0.0 0.00 0.00 0.00 69 1011.3
20260904145012 30 220 1.6 6.4 0.00 0.00 0.00 70 1011.3
20260904144512 30 236 0.0 0.0 0.00 0.00 0.00 70 1011.3
20260904144011 30 236 0.0 0.0 0.00 0.00 0.00 70 1011.4
20260904143511 30 236 0.0 0.0 0.00 0.00 0.00 73 1011.4
20260904143011 30 236 0.0 0.0 0.00 0.00 0.00 73 1011.4
20260904142011 29 236 0.0 0.0 0.00 0.00 0.00 75 1011.3
20260904141513 29 236 0.0 0.0 0.00 0.00 0.00 76 1011.3
20260904141011 28 236 0.0 0.0 0.00 0.00 0.00 77 1011.3
20260904140011 28 236 0.0 0.0 0.00 0.00 0.00 79 1011.3
20260904135511 28 236 0.0 0.0 0.00 0.00 0.00 80 1011.3
20260904134511 27 236 0.0 0.0 0.00 0.00 0.00 83 1011.3
20260904134011 27 236 0.0 0.0 0.00 0.00 0.00 84 1011.4
20260904133512 27 236 0.0 0.0 0.00 0.00 0.00 85 1011.4
20260904133013 27 236 0.0 0.0 0.00 0.00 0.00 86 1011.4
20260904132511 26 236 0.0 0.0 0.00 0.00 0.00 87 1011.5
20260904132013 26 236 0.0 0.0 0.00 0.00 0.00 87 1011.5
20260904131511 26 236 0.0 0.0 0.00 0.00 0.00 88 1011.5
20260904131011 26 236 0.0 0.0 0.00 0.00 0.00 90 1011.5
20260904130011 25 216 0.0 0.0 0.00 0.00 0.00 92 1011.5
20260904125513 25 216 0.0 0.0 0.00 0.00 0.00 94 1011.4
20260904125011 25 216 0.0 0.0 0.00 0.00 0.00 96 1011.4
20260904124511 25 216 0.0 0.0 0.00 0.00 0.00 98 1011.4
20260904124012 25 216 0.0 0.0 0.00 0.00 0.00 99 1011.5
20260904123511 24 216 0.0 0.0 0.00 0.00 0.00 100 1011.5
20260904123011 24 216 0.0 0.0 0.00 0.00 0.00 100 1011.5
20260904122511 23 216 0.0 0.0 0.00 0.00 0.00 100 1011.4
20260904121511 23 216 0.0 0.0 0.00 0.00 0.00 100 1011.4
20260904120511 23 216 0.0 0.0 0.00 0.00 0.00 100 1011.3
20260904120011 23 216 0.0 0.0 0.00 0.00 0.00 100 1011.3
20260904115511 23 216 0.0 0.0 0.00 0.00 0.00 100 1011.4
20260904115011 23 216 0.0 0.0 0.00 0.00 0.00 100 1011.4
20260904114511 22 216 0.0 0.0 0.00 0.00 0.00 100 1011.4
20260904113511 22 215 0.0 0.0 0.00 0.00 0.00 100 1011.2
20260904113012 22 216 0.0 0.0 0.00 0.00 0.00 100 1011.2
20260904112512 22 216 0.0 0.0 0.00 0.00 0.00 100 1011.0
20260904112012 22 216 0.0 0.0 0.00 0.00 0.00 100 1011.0
20260904111510 22 216 0.0 0.0 0.00 0.00 0.00 100 1011.0
20260904111010 22 216 0.0 0.0 0.00 0.00 0.00 100 1010.8
20260904110511 22 216 0.0 0.0 0.00 0.00 0.00 100 1010.8
20260904110011 22 216 0.0 0.0 0.00 0.00 0.00 100 1010.8
20260904105512 22 216 0.0 0.0 0.00 0.00 0.00 100 1010.8
20260904105011 22 216 0.0 0.0 0.00 0.00 0.00 100 1010.8
20260904104011 22 216 0.0 0.0 0.00 0.00 0.00 100 1010.8
20260904103511 23 216 0.0 0.0 0.00 0.00 0.00 100 1010.8
20260904103011 23 216 0.0 0.0 0.00 0.00 0.00 100 1010.8
20260904102510 23 216 0.0 0.0 0.00 0.00 0.00 100 1010.8
20260904102010 23 216 0.0 0.0 0.00 0.00 0.00 100 1010.8
20260904101510 23 216 0.0 1.6 0.00 0.00 0.00 100 1010.8
20260904101011 23 215 0.0 0.0 0.00 0.00 0.00 100 1010.7
20260904100510 23 216 0.0 0.0 0.00 0.00 0.00 100 1010.7
20260904100011 23 216 0.0 0.0 0.00 0.00 0.00 100 1010.7
20260904095512 23 216 0.0 0.0 0.00 0.00 0.00 100 1010.7
20260904095011 23 216 0.0 0.0 0.00 0.00 0.00 100 1010.7
20260904094511 23 216 0.0 0.0 0.00 0.00 0.00 100 1010.7
20260904093011 23 216 0.0 0.0 0.00 0.00 0.00 100 1010.6
20260904092512 23 216 0.0 0.0 0.00 0.00 0.00 100 1010.3
20260904092011 23 216 0.0 0.0 0.00 0.00 0.00 100 1010.3
20260904091511 23 216 0.0 0.0 0.00 0.00 0.00 100 1010.3
20260904091011 23 216 0.0 0.0 0.00 0.00 0.00 100 1010.2
20260904090511 23 216 0.0 0.0 0.00 0.00 0.00 100 1010.2
20260904090011 23 216 0.0 0.0 0.00 0.00 0.00 100 1010.2
20260904085511 23 216 0.0 0.0 0.00 0.00 0.00 100 1010.1
20260904085011 23 216 0.0 0.0 0.00 0.00 0.00 100 1010.1
20260904084510 23 216 0.0 0.0 0.00 0.00 0.00 100 1010.1
20260904084011 23 216 0.0 0.0 0.00 0.00 0.00 100 1010.0
20260904083510 23 216 1.6 3.2 0.00 0.00 0.00 100 1010.0
20260904083010 23 216 0.0 0.0 0.00 0.00 0.00 100 1010.0
20260904082510 23 216 0.0 0.0 0.00 0.00 0.00 100 1010.0
20260904082012 23 216 0.0 0.0 0.00 0.00 0.00 100 1010.0
20260904081510 23 216 0.0 0.0 0.00 0.00 0.00 100 1010.0
20260904081012 23 216 1.6 4.8 0.00 0.00 0.00 100 1010.1
20260904080510 23 216 0.0 0.0 0.00 0.00 0.00 100 1010.1
20260904074010 23 216 0.0 0.0 0.00 0.00 0.00 100 1010.1
20260904073510 23 216 0.0 0.0 0.00 0.00 0.00 100 1010.1
20260904073011 23 216 0.0 0.0 0.00 0.00 0.00 100 1010.1
20260904071510 23 216 0.0 0.0 0.00 0.00 0.00 100 1010.1
20260904071013 23 216 0.0 0.0 0.00 0.00 0.00 100 1010.0
20260904070511 24 216 0.0 0.0 0.00 0.00 0.00 100 1010.0
20260904070011 24 216 0.0 0.0 0.00 0.00 0.00 100 1010.0
20260904065012 23 216 0.0 0.0 0.00 0.00 0.00 100 1010.1
20260904064511 24 216 0.0 0.0 0.00 0.00 0.00 100 1010.1
20260904064013 24 216 0.0 0.0 0.00 0.00 0.00 100 1010.2
20260904063511 24 216 0.0 0.0 0.00 0.00 0.00 100 1010.2
20260904062511 24 216 0.0 0.0 0.00 0.00 0.00 100 1010.3
20260904062011 24 215 0.0 0.0 0.00 0.00 0.00 100 1010.3
20260904061511 24 216 0.0 0.0 0.00 0.00 0.00 100 1010.3
20260904061011 24 216 0.0 0.0 0.00 0.00 0.00 100 1010.5
20260904060511 24 216 0.0 0.0 0.00 0.00 0.00 100 1010.5
20260904060011 24 216 0.0 0.0 0.00 0.00 0.00 100 1010.5
20260904055511 24 216 0.0 0.0 0.00 0.00 0.00 100 1010.5
20260904055013 24 215 0.0 0.0 0.00 0.00 0.00 100 1010.5
20260904054511 24 216 0.0 0.0 0.00 0.00 0.00 100 1010.5
20260904054011 25 216 0.0 0.0 0.00 0.00 0.00 100 1010.6
20260904053511 25 216 0.0 0.0 0.00 0.00 0.00 100 1010.6
20260904052511 25 216 0.0 0.0 0.00 0.00 0.00 99 1010.5
20260904052011 25 216 0.0 0.0 0.00 0.00 0.00 99 1010.5
20260904051513 25 215 0.0 0.0 0.00 0.00 0.00 99 1010.5
20260904051011 25 216 0.0 0.0 0.00 0.00 0.00 99 1010.6
20260904050511 25 216 0.0 0.0 0.00 0.00 0.00 99 1010.6
20260904050011 25 216 0.0 0.0 0.00 0.00 0.00 99 1010.6
20260904045513 25 216 0.0 0.0 0.00 0.00 0.00 99 1010.6
20260904045011 25 216 0.0 0.0 0.00 0.00 0.00 99 1010.6
20260904044511 25 216 0.0 0.0 0.00 0.00 0.00 99 1010.6
20260904043511 25 216 0.0 0.0 0.00 0.00 0.00 98 1010.5
20260904043011 25 216 0.0 0.0 0.00 0.00 0.00 98 1010.5
20260904042511 25 216 0.0 0.0 0.00 0.00 0.00 98 1010.5
20260904042011 25 216 0.0 0.0 0.00 0.00 0.00 98 1010.5
20260904041511 25 216 0.0 0.0 0.00 0.00 0.00 98 1010.5
20260904035511 25 216 0.0 0.0 0.00 0.00 0.00 97 1010.6
20260904035011 25 216 0.0 0.0 0.00 0.00 0.00 97 1010.6
20260904034511 25 216 0.0 0.0 0.00 0.00 0.00 97 1010.6
20260904034011 25 216 0.0 0.0 0.00 0.00 0.00 97 1010.5
20260904033511 26 216 0.0 3.2 0.00 0.00 0.00 97 1010.5
20260904033011 26 216 1.6 0.0 0.00 0.00 0.00 97 1010.5
20260904032512 26 216 0.0 0.0 0.00 0.00 0.00 96 1010.6
20260904031511 26 216 0.0 0.0 0.00 0.00 0.00 96 1010.6
20260904031011 26 216 0.0 0.0 0.00 0.00 0.00 95 1010.7
20260904030511 26 216 0.0 0.0 0.00 0.00 0.00 95 1010.7
20260904030011 26 216 0.0 0.0 0.00 0.00 0.00 95 1010.7
20260904025513 26 216 0.0 0.0 0.00 0.00 0.00 95 1010.7
20260904025011 26 215 0.0 0.0 0.00 0.00 0.00 95 1010.7
20260904024510 26 216 0.0 1.6 0.00 0.00 0.00 95 1010.7
20260904023011 26 215 0.0 0.0 0.00 0.00 0.00 94 1010.7
20260904022510 26 216 0.0 0.0 0.00 0.00 0.00 93 1010.7
20260904022011 26 216 0.0 0.0 0.00 0.00 0.00 93 1010.7
20260904021511 26 216 0.0 0.0 0.00 0.00 0.00 93 1010.7
20260904021010 26 216 0.0 0.0 0.00 0.00 0.00 92 1010.7
20260904020511 26 216 0.0 0.0 0.00 0.00 0.00 92 1010.7
20260904020012 27 216 0.0 0.0 0.00 0.00 0.00 92 1010.7
20260904015511 27 216 0.0 3.2 0.00 0.00 0.00 92 1010.7
20260904015011 27 216 1.6 0.0 0.00 0.00 0.00 91 1010.7
20260904014511 27 217 0.0 0.0 0.00 0.00 0.00 90 1010.7
20260904014011 27 217 0.0 0.0 0.00 0.00 0.00 90 1010.4
20260904013510 27 216 0.0 0.0 0.00 0.00 0.00 89 1010.4
20260904012511 27 217 0.0 0.0 0.00 0.00 0.00 88 1010.4
20260904011512 27 216 0.0 0.0 0.00 0.00 0.00 88 1010.4
20260904011011 27 216 0.0 0.0 0.00 0.00 0.00 87 1010.3
20260904010511 27 216 0.0 0.0 0.00 0.00 0.00 87 1010.3
20260904005511 28 216 0.0 0.0 0.00 0.00 0.00 87 1010.4
20260904005010 28 216 0.0 0.0 0.00 0.00 0.00 86 1010.4
20260904004512 28 216 0.0 0.0 0.00 0.00 0.00 85 1010.4
20260904004010 28 216 0.0 3.2 0.00 0.00 0.00 85 1010.2
20260904003510 28 216 0.0 0.0 0.00 0.00 0.00 84 1010.2
20260904003010 28 216 0.0 0.0 0.00 0.00 0.00 83 1010.2
20260904002510 28 216 0.0 0.0 0.00 0.00 0.00 82 1009.8
20260904001512 28 217 0.0 0.0 0.00 0.00 0.00 80 1009.8
20260904001011 29 217 0.0 0.0 0.00 0.00 0.00 80 1009.9
20260904000510 29 216 0.0 0.0 0.00 0.00 0.00 79 1009.9
20260903235510 30 216 0.0 0.0 0.00 0.00 0.00 77 1010.0
20260903235010 30 216 0.0 0.0 0.00 0.00 0.00 77 1010.0
20260903234010 30 216 0.0 0.0 0.00 0.00 0.00 73 1009.8
20260903233510 30 216 0.0 0.0 0.00 0.00 0.00 72 1009.8
20260903233010 30 217 0.0 0.0 0.00 0.00 0.00 71 1009.8
20260903232510 31 216 0.0 0.0 0.00 0.00 0.00 69 1009.7
20260903231510 31 216 0.0 0.0 0.00 0.00 0.00 68 1009.7
20260903231010 31 216 0.0 0.0 0.00 0.00 0.00 66 1009.6
20260903230510 32 216 0.0 0.0 0.00 0.00 0.00 66 1009.6
20260903230010 32 216 0.0 0.0 0.00 0.00 0.00 65 1009.6
20260903225512 32 216 0.0 0.0 0.00 0.00 0.00 64 1009.4
20260903225012 32 217 0.0 0.0 0.00 0.00 0.00 63 1009.4
20260903224511 32 216 0.0 0.0 0.00 0.00 0.00 64 1009.4
20260903223010 33 216 0.0 0.0 0.00 0.00 0.00 61 1009.2
20260903222012 33 216 0.0 0.0 0.00 0.00 0.00 57 1009.0
20260903220513 33 195 3.2 0.0 0.00 0.00 0.00 55 1009.0
20260903220011 33 198 0.0 0.0 0.00 0.00 0.00 54 1009.0
20260903215511 33 194 0.0 0.0 0.00 0.00 0.00 54 1008.9
20260903214013 33 203 1.6 0.0 0.00 0.00 0.00 51 1009.1
20260903213511 33 191 0.0 0.0 0.00 0.00 0.00 52 1009.1
20260903213011 33 191 4.8 0.0 0.00 0.00 0.00 51 1009.1
20260903212011 33 195 0.0 8.0 0.00 0.00 0.00 50 1009.2
20260903211513 33 196 0.0 0.0 0.00 0.00 0.00 51 1009.2
20260903211011 34 196 0.0 0.0 0.00 0.00 0.00 51 1009.6
20260903210511 34 196 0.0 0.0 0.00 0.00 0.00 50 1009.6
20260903210011 34 196 0.0 0.0 0.00 0.00 0.00 50 1009.6
20260903205011 34 188 0.0 0.0 0.00 0.00 0.00 50 1009.8
20260903204511 34 188 0.0 0.0 0.00 0.00 0.00 49 1009.8
20260903204013 34 174 0.0 0.0 0.00 0.00 0.00 49 1009.8
20260903203513 34 165 0.0 0.0 0.00 0.00 0.00 53 1009.8
20260903203011 34 207 0.0 8.0 0.00 0.00 0.00 52 1009.8
20260903202511 34 206 0.0 0.0 0.00 0.00 0.00 51 1010.0
20260903202011 34 186 0.0 0.0 0.00 0.00 0.00 51 1010.0
20260903201512 34 197 6.4 0.0 0.00 0.00 0.00 50 1010.0
20260903201011 34 267 0.0 0.0 0.00 0.00 0.00 51 1010.2
20260903200513 34 267 0.0 0.0 0.00 0.00 0.00 52 1010.2
20260903200011 34 267 0.0 0.0 0.00 0.00 0.00 52 1010.2
20260903195512 34 267 0.0 0.0 0.00 0.00 0.00 55 1010.3
20260903195011 34 268 0.0 0.0 0.00 0.00 0.00 53 1010.3
20260903194512 34 178 0.0 0.0 0.00 0.00 0.00 53 1010.3
20260903194011 34 179 0.0 3.2 0.00 0.00 0.00 51 1010.5
20260903193511 34 179 0.0 0.0 0.00 0.00 0.00 53 1010.5
20260903192511 34 179 0.0 0.0 0.00 0.00 0.00 48 1010.6
20260903192011 35 193 6.4 0.0 0.00 0.00 0.00 47 1010.6
20260903191011 35 355 0.0 0.0 0.00 0.00 0.00 50 1010.9
20260903190511 35 355 0.0 0.0 0.00 0.00 0.00 47 1010.9
20260903190011 35 290 0.0 0.0 0.00 0.00 0.00 49 1010.9
20260903185511 36 122 0.0 0.0 0.00 0.00 0.00 49 1011.0
20260903184511 35 200 0.0 0.0 0.00 0.00 0.00 48 1011.0
20260903183510 35 200 4.8 0.0 0.00 0.00 0.00 50 1011.1
20260903183010 35 296 0.0 0.0 0.00 0.00 0.00 51 1011.1
20260903182511 34 311 0.0 6.4 0.00 0.00 0.00 53 1011.3
20260903182010 34 309 0.0 0.0 0.00 0.00 0.00 52 1011.3
20260903181511 34 309 0.0 0.0 0.00 0.00 0.00 53 1011.3
20260903180011 35 292 0.0 9.7 0.00 0.00 0.00 50 1011.4
20260903175511 35 16 0.0 0.0 0.00 0.00 0.00 51 1011.5
20260903175010 35 222 1.6 0.0 0.00 0.00 0.00 51 1011.5
20260903174511 35 47 0.0 0.0 0.00 0.00 0.00 50 1011.5
20260903174011 35 293 0.0 0.0 0.00 0.00 0.00 51 1011.7
20260903173011 35 297 0.0 0.0 0.00 0.00 0.00 51 1011.7
20260903172511 35 326 0.0 0.0 0.00 0.00 0.00 51 1011.7
20260903172011 34 262 0.0 0.0 0.00 0.00 0.00 53 1011.7
20260903171511 34 226 0.0 0.0 0.00 0.00 0.00 53 1011.7